EHI
0 0 0 0 0 0 0 0 0 0 0 0 0 0 0 0 0 0 0 0 0 0 0 0 0 0 0 0 0 0 0 0 0 0 0 0 0 0 0 0 0 0 0 0
0 0 0 0 0 0 0 0 0 0 0 0 0 0 0 0 0 0 0 0 0 0 0 0 0 0 0 0 0 0 0 0 0 0 0 0 0 0 0 0 0 0 0 0
0 0 0 0 0 0 0 0 0 0 0 0 0 0 0 0 0 0 0 0 0 0 0 0 0 0 0 0 0 0 0 0 0 0 0 0 0 0 0 0 0 0 0 0
0 0 0 0 0 0 0 0 0 0 0 0 0 0 0 0 0 0 0 0 0 0 0 0 0 0 0 0 0 0 0 0 0 0 0 0 0 0 0 0 0 0 0 0
0 0 0 0 0 0 0 0 0 0 0 0 0 0 0 0 0 0 0 0 0 0 0 0 0 0 0 0 0 0 0 0 0 0 0 0 0 0 0 0 0 0 0 0
0 0 0 0 0 0 0 0 0 0 0 0 0 0 0 0 0 0 0 0 0 0 0 0 0 0 0 0 0 0 0 0 0 0 0 0 0 0 0 0 0 0 0 0
0 0 0 0 0 0 0 0 0 0 0 0 0 0 0 0 0 0 0 0 0 0 0 0 0 0 0 0 0 0 0 0 0 0 0 0 0 0 0 0 0 0 0 0
0 0 0 0 0 0 0 0 0 0 0 0 0 0 0 0 0 0 0 0 0 0 0 0 0 0 0 0 0 0 0 0 0 0 0 0 0 0 0 0 0 0 0 0
0 0 0 0 0 0 0 0 0 0 0 0 0 0 0 0 0 0 0 0 0 0 0 0 0 0 0 0 0 0 0 0 0 0 0 0 0 0 0 0 0 0 0 0
0 0 0 0 0 0 0 0 0 0 0 0 0 0 0 0 0 0 0 0 0 0 0 0 0 0 0 0 0 0 0 0 0 0 0 0 0 0 0 0 0 0 0 0
0 0 0 0 0 0 0 0 0 0 0 0 0 0 0 0 0 0 0 0 0 0 0 0 0 0 0 0 0 0 0 0 0 0 0 0 0 0 0 0 0 0 0 0
0 0 0 0 0 0 0 0 0 0 0 0 0 0 0 0 0 0 0 0 0 0 0 0 0 0 0 0 0 0 0 0 0 0 0 0 0 0 0 0 0 0 0 0
0 0 0 0 0 0 0 0 0 0 0 0 0 0 0 0 0 0 0 0 0 0 0 0 0 0 0 0 0 0 0 0 0 0 0 0 0 0 0 0 0 0 0 0
0 0 0 0 0 0 0 0 0 0 0 0 0 0 0 0 0 0 0 0 0 0 0 0 0 0 0 0 0 0 0 0 0 0 0 0 0 0 0 0 0 0 0 0
0 0 0 0 0 0 0 0 0 0 0 0 0 0 0 0 0 0 0 0 0 0 0 0 0 0 0 0 0 0 0 0 0 0 0 0 0 0 0 0 0 0 0 0
0 0 0 0 0 0 0 0 0 0 0 0 0 0 0 0 0 0 0 0 0 0 0 0 0 0 0 0 0 0 0 0 0 0 0 0 0 0 0 0 0 0 0 0
0 0 0 0 0 0 0 0 0 0 0 0 0 0 0 0 0 0 0 0 0 0 0 0 0 0 0 0 0 0 0 0 0 0 0 0 0 0 0 0 0 0 0 0
0 0 0 0 0 0 0 0 0 0 0 0 0 0 0 0 0 0 0 0 0 0 0 0 0 0 0 0 0 0 0 0 0 0 0 0 0 0 0 0 0 0 0 0
0 0 0 0 0 0 0 0 0 0 0 0 0 0 0 0 0 0 0 0 0 0 0 0 0 0 0 0 0 0 0 0 0 0 0 0 0 0 0 0 0 0 0 0
0 0 0 0 0 0 0 0 0 0 0 0 0 0 0 0 0 0 0 0 0 0 0 0 0 0 0 0 0 0 0 0 0 0 0 0 0 0 0 0 0 0 0 0
0 0 0 0 0 0 0 0 0 0 0 0 0 0 0 0 0 0 0 0 0 0 0 0 0 0 0 0 0 0 0 0 0 0 0 0 0 0 0 0 0 0 0 0
0 0 0 0 0 0 0 0 0 0 0 0 0 0 0 0 0 0 0 0 0 0 0 0 0 0 0 0 0 0 0 0 0 0 0 0 0 0 0 0 0 0 0 0
0 0 0 0 0 0 0 0 0 0 0 0 0 0 0 0 0 0 0 0 0 0 0 0 0 0 0 0 0 0 0 0 0 0 0 0 0 0 0 0 0 0 0 0
0 0 0 0 0 0 0 0 0 0 0 0 0 0 0 0 0 0 0 0 0 0 0 0 0 0 0 0 0 0 0 0 0 0 0 0 0 0 0 0 0 0 0 0
0 0 0 0 0 0 0 0 0 0 0 0 0 0 0 0 0 0 0 0 0 0 0 0 0 0 0 0 0 0 0 0 0 0 0 0 0 0 0 0 0 0 0 0
0 0 0 0 0 0 0 0 0 0 0 0 0 0 0 0 0 0 0 0 0 0 0 0 0 0 0 0 0 0 0 0 0 0 0 0 0 0 0 0 0 0 0 0
0 0 0 0 0 0 0 0 0 0 0 0 0 0 0 0 0 0 0 0 0 0 0 0 0 0 0 0 0 0 0 0 0 0 0 0 0 0 0 0 0 0 0 0
Wind_Speed
8 5 4 8 11 14 16 13 12 12 12 18 16 14 10 7 9 12 14 16 15 14 12 10 9 8 6 5 5 5 6 7 7 8 9 10 10 10 11 11 12 12 13 14
6 4 6 10 15 17 17 15 17 19 21 20 15 9 8 8 10 14 16 17 16 14 13 12 11 8 7 6 5 5 6 6 7 8 9 9 10 10 11 11 12 12 12 13
4 1 5 13 13 19 13 14 14 15 14 8 7 9 10 9 13 16 16 17 17 16 14 12 11 9 8 6 5 5 6 6 7 8 9 9 10 10 11 11 11 12 12 13
4 3 10 5 3 11 11 11 16 15 15 13 11 10 9 10 13 15 15 16 16 14 13 11 10 9 7 6 6 6 6 6 7 7 8 10 10 10 11 10 10 11 12 13
3 5 11 6 6 9 9 10 14 18 19 15 3 7 10 12 15 14 15 15 15 14 13 12 11 10 8 7 6 6 7 7 6 7 8 10 10 11 10 10 11 11 11 12
4 5 9 4 5 5 4 8 7 13 15 8 3 7 6 5 10 12 12 12 12 13 13 12 11 10 9 8 7 7 6 6 7 8 9 10 10 11 10 10 10 11 11 12
8 8 13 2 7 8 5 5 4 11 11 9 11 10 1 4 8 11 12 13 13 14 13 12 12 11 10 9 8 7 5 6 7 8 8 9 10 9 10 10 10 11 12 12
9 9 13 8 12 13 9 2 3 7 9 11 14 10 5 7 9 12 14 14 15 14 12 11 12 12 11 10 7 6 5 7 7 8 7 7 9 9 9 9 10 10 11 11
14 12 3 13 13 10 3 5 7 7 9 10 12 12 11 10 11 13 15 15 14 14 13 12 12 12 11 9 7 6 6 7 7 7 7 7 8 9 8 7 7 9 9 9
10 15 10 12 15 13 12 14 14 11 9 10 13 13 12 11 12 14 15 15 15 15 14 13 13 13 11 8 8 7 7 6 5 6 6 6 5 5 6 6 7 9 9 10
12 11 8 13 18 20 18 17 18 16 14 14 14 14 13 13 14 14 15 15 15 16 15 15 14 13 12 10 9 8 7 6 5 5 6 6 5 5 6 6 7 9 8 9
14 9 10 10 6 9 13 16 16 14 14 14 15 15 14 14 14 15 16 16 16 16 15 15 14 13 12 11 11 9 6 5 4 4 4 4 5 5 5 6 10 11 11 12
19 9 10 14 9 8 13 15 13 14 15 14 14 14 15 13 14 15 16 18 19 19 17 15 14 14 13 12 12 10 8 6 4 4 4 4 4 5 6 5 6 7 9 12
16 10 11 15 17 16 17 16 12 12 14 13 12 13 13 14 14 17 19 19 18 17 17 16 15 15 14 13 12 11 9 7 6 4 4 4 4 4 5 6 7 5 7 10
18 16 19 20 18 17 13 11 12 15 14 13 12 14 15 17 18 19 17 16 17 17 17 16 16 15 14 14 13 12 9 6 6 4 4 4 4 4 4 5 5 6 6 7
13 14 17 19 23 24 20 17 18 21 16 14 15 17 17 17 15 15 16 19 20 21 19 18 17 15 15 15 14 10 9 11 8 5 4 4 4 4 3 4 4 5 5 6
14 18 19 21 25 26 24 22 21 20 15 14 15 14 14 15 15 17 18 19 19 18 19 19 17 15 16 16 14 9 8 9 12 7 5 4 4 4 3 3 4 4 4 6
25 26 24 21 21 23 24 20 16 15 14 11 11 13 17 19 21 20 18 18 17 16 17 17 16 16 16 16 13 9 8 8 7 7 5 5 5 4 3 3 4 4 4 5
19 21 22 22 22 22 20 18 14 12 10 10 14 18 20 20 18 17 18 19 20 20 18 17 23 19 17 17 16 10 9 9 8 7 6 7 6 5 4 4 3 3 4 4
16 17 19 19 18 16 17 15 12 11 9 12 15 16 17 18 16 17 19 20 18 14 16 19 20 17 16 17 19 10 11 10 9 8 7 6 6 5 5 4 4 3 3 3
16 15 15 16 17 17 16 14 12 13 10 13 16 18 17 15 17 18 19 18 16 14 18 25 18 15 15 16 20 11 11 10 10 9 8 7 7 6 5 5 4 3 3 3
13 13 15 15 16 17 14 11 11 12 10 12 15 14 13 15 17 18 19 12 14 21 17 16 15 19 20 21 14 12 12 11 10 9 8 8 7 7 6 5 4 4 3 3
14 13 14 14 14 15 14 11 10 10 11 12 13 14 15 14 14 15 15 12 13 24 18 15 20 28 29 18 13 13 13 12 11 10 9 8 8 7 6 6 5 4 3 3
14 13 12 11 9 11 13 13 9 8 9 10 10 11 12 11 11 12 8 16 22 25 16 19 29 32 29 14 13 13 13 12 11 10 9 8 8 7 7 6 5 5 4 4
11 10 10 9 9 10 10 10 8 8 8 7 8 9 10 10 9 10 10 15 23 24 15 21 30 32 22 13 14 13 12 12 11 10 10 9 9 8 7 7 6 5 5 4
11 11 10 9 9 9 8 7 7 6 5 6 6 6 8 7 8 8 9 13 20 22 16 14 19 23 16 15 14 14 12 12 13 11 10 10 10 9 8 8 9 6 5 4
12 11 9 10 9 7 6 6 7 7 6 6 6 6 8 8 9 10 11 12 14 15 13 13 15 16 15 14 13 13 12 11 11 11 10 10 9 9 9 9 7 6 5 5
Wind_Direction
269 266 240 243 218 198 210 225 240 252 259 275 291 303 296 265 214 198 194 193 193 192 191 192 195 200 209 229 248 268 284 296 306 312 315 315 315 316 318 319 321 322 322 322
267 242 230 255 238 221 226 236 246 263 274 270 282 285 267 241 209 204 202 198 196 194 191 192 194 195 202 219 236 259 274 285 294 301 306 309 311 315 317 319 320 321 319 318
263 179 279 263 230 198 204 215 214 229 245 262 259 257 261 244 214 212 206 198 195 194 193 191 188 188 197 209 224 248 264 275 285 293 300 306 309 312 316 317 318 317 315 316
282 289 246 255 108 180 205 228 219 241 261 268 272 291 278 248 226 216 204 197 194 191 187 183 177 180 190 201 223 243 259 267 275 285 293 301 308 311 315 316 315 311 313 316
235 258 276 267 180 176 201 260 221 229 252 265 325 302 267 227 218 215 201 193 188 183 177 172 174 177 186 204 221 238 252 262 272 279 286 296 303 308 314 314 311 309 312 316
202 230 249 260 137 158 164 272 224 209 238 239 181 278 298 162 196 201 190 181 174 169 168 172 173 174 190 207 220 234 247 263 275 279 284 292 301 309 313 313 309 313 314 316
216 239 264 248 135 153 194 262 197 202 223 197 207 238 297 155 184 186 179 173 168 167 173 176 171 177 195 208 221 230 246 265 275 280 287 294 300 306 309 310 311 314 317 319
184 208 250 158 155 198 227 248 206 215 219 215 230 241 219 201 187 181 177 174 172 172 176 173 174 183 199 212 214 216 238 261 273 282 288 289 299 305 310 313 313 317 320 323
194 213 257 171 204 225 272 252 240 230 229 223 236 239 223 209 195 188 184 179 178 177 175 176 182 190 204 205 197 206 231 254 272 283 286 290 300 307 314 317 316 318 323 326
236 255 244 223 242 253 245 249 260 254 245 223 232 238 221 206 195 189 187 183 179 180 183 185 187 195 206 195 188 203 228 250 268 281 289 297 301 305 312 314 317 321 330 330
242 259 290 254 233 242 251 253 257 256 245 236 234 235 217 206 198 191 187 184 183 188 191 190 187 195 198 194 191 204 222 240 258 271 284 294 301 306 308 307 314 324 329 329
244 225 219 254 221 218 237 249 248 247 248 235 225 229 214 208 198 190 187 184 187 191 192 190 187 193 193 191 192 199 212 227 242 264 280 294 304 304 291 297 317 327 332 333
255 256 244 271 273 239 248 257 249 239 241 240 225 218 211 206 195 190 189 189 191 191 191 187 188 192 189 187 190 197 206 213 227 249 271 291 304 311 318 318 313 322 338 340
248 258 269 263 262 261 255 253 252 248 245 238 225 209 205 202 194 193 195 193 191 187 187 187 189 193 186 183 188 195 201 210 220 233 250 269 284 297 307 316 322 327 336 340
240 228 240 259 267 265 256 250 249 252 245 234 216 204 199 198 200 199 194 186 184 186 187 187 191 191 180 181 187 192 194 198 205 219 232 250 265 277 289 300 308 317 325 336
242 234 241 252 260 265 263 253 251 258 250 231 216 210 206 205 203 195 188 183 184 189 188 188 193 187 176 180 184 189 194 200 200 209 218 231 243 257 275 294 306 314 326 334
246 250 248 250 256 261 262 257 253 256 251 231 221 208 201 201 201 198 193 192 193 192 187 188 188 177 176 180 182 184 185 192 201 207 212 220 229 241 259 279 296 308 318 325
250 254 256 256 260 266 268 265 259 253 246 231 200 193 198 201 205 200 192 187 191 195 193 188 179 172 176 179 181 180 179 181 187 197 202 210 219 228 242 261 282 296 311 320
260 262 265 265 265 267 271 273 268 259 241 202 194 203 206 209 206 194 183 184 189 194 192 183 178 173 177 181 176 178 179 180 184 191 197 207 214 218 228 243 263 286 303 314
272 273 272 273 274 274 275 278 276 266 237 209 207 210 212 209 198 188 186 194 199 192 174 174 176 175 178 180 176 177 180 183 186 188 192 200 207 211 216 228 246 267 285 303
280 283 283 284 284 284 281 279 272 265 241 211 211 215 214 203 192 187 189 201 200 181 169 174 175 174 176 176 177 177 180 183 187 189 192 197 201 206 210 217 229 245 267 289
294 293 289 287 285 286 286 280 270 262 244 225 222 219 208 199 194 196 202 201 177 175 169 175 177 176 175 174 176 177 181 183 186 188 192 195 197 201 204 208 217 228 246 271
300 296 291 289 288 291 293 286 272 261 249 236 227 219 212 203 194 193 200 199 175 176 174 177 179 177 175 174 176 177 181 184 186 188 191 193 196 198 200 203 209 217 232 252
299 295 289 288 290 291 291 290 278 267 261 253 237 219 209 206 206 206 197 182 179 178 179 179 178 177 174 174 175 178 181 184 186 187 188 189 191 193 197 199 203 209 220 238
286 283 283 287 291 291 288 289 285 274 265 259 248 223 212 212 207 199 193 181 178 176 177 180 179 178 174 173 176 179 181 183 183 182 185 187 188 191 194 196 200 204 211 224
278 279 279 272 273 279 284 284 281 275 262 255 243 220 211 209 204 192 188 183 179 177 173 174 177 179 177 174 177 179 179 181 184 186 186 186 188 189 191 194 198 202 207 217
273 273 272 274 269 258 257 260 262 260 242 235 238 217 205 200 196 190 187 183 179 177 173 174 176 178 176 174 176 177 176 177 179 181 182 185 186 188 189 190 192 194 198 208